Tracking 19145 objects as of 25-Apr-2018
HD Live streaming from Space Station
objects crossing your sky now

FENGYUN 1C DEB

Track FENGYUN 1C DEB now!
10-day predictions


NORAD ID: 31383
Int'l Code: 1999-025BSP
Perigee: 815.2 km
Apogee: 989.0 km
Inclination: 99.3 °
Period: 102.9 minutes
Semi major axis: 7273 km
RCS: 0.0142 m2 (small)
Launch date: May 10, 1999
Source: People's Republic of China (PRC)
Launch site: Taiyaun Space Center, China (TSC)

Note: This is SATELLITE DEBRIS
aabbcc
Your satellite tracking list
Your tracking list is empty




NASA's NSSDC Master Catalog

Two Line Element Set (TLE):
1 31383U 99025BSP 18114.96289235  .00000367  00000-0  26515-3 0  9990
2 31383  99.2805 118.3226 0119492  68.4548 353.1687 13.99667526563053
Source of the keplerian elements: AFSPC